Wind_Speed
10 10 9 8 7 8 8 7 8 7 7 9 9 8 9 8 12 15 16 16 16 15 15 14 15 17 18 18 17 20 20 14 13 13 14 19 18 19 13 12 14 15 13 14 14
9 10 9 8 7 9 10 10 10 8 10 11 11 9 8 9 11 11 13 14 15 14 15 15 13 15 17 17 18 19 20 14 11 16 15 22 20 19 15 15 17 13 11 12 12
10 10 9 9 10 12 12 12 12 13 14 14 15 13 11 12 12 12 11 11 14 13 13 14 14 14 16 17 17 18 21 13 16 19 16 21 20 20 16 17 19 13 12 13 14
9 8 9 10 11 10 10 11 11 11 11 12 15 16 15 15 15 13 12 11 11 13 13 13 15 15 15 15 15 18 20 24 16 21 25 23 21 21 18 12 18 17 16 16 16
8 7 8 8 9 9 10 11 11 11 11 12 13 13 14 16 16 14 13 11 10 10 12 13 14 15 15 15 16 16 20 24 26 25 21 23 24 21 21 21 18 22 18 17 18
9 9 10 11 11 12 13 15 15 15 15 16 17 16 16 16 16 16 15 12 12 11 11 13 14 15 14 15 14 16 22 25 27 24 24 22 22 25 20 22 19 25 21 18 18
11 11 11 13 13 14 15 16 17 17 18 19 20 19 19 18 17 16 16 15 13 13 12 13 14 15 14 14 14 15 18 23 25 23 25 24 25 24 17 24 23 25 23 18 16
12 11 11 11 12 14 16 16 17 19 19 20 21 21 21 20 19 19 17 16 15 13 13 12 13 14 15 13 12 13 16 20 20 25 26 27 23 23 23 29 26 23 21 16 18
12 11 11 13 14 16 17 17 17 18 19 20 20 20 19 20 20 19 18 16 15 15 14 14 14 14 15 14 13 13 13 14 14 26 25 29 24 18 24 32 24 22 20 18 19
13 13 14 14 15 16 17 16 16 17 19 19 19 20 19 19 20 19 18 17 16 17 16 15 15 15 15 16 8 10 13 13 17 20 21 24 26 17 30 31 23 22 20 18 21
14 14 14 14 14 16 16 17 17 16 18 19 18 18 18 19 19 18 18 17 16 16 16 16 15 15 12 18 24 23 17 14 16 21 24 20 21 25 27 25 24 21 18 21 24
14 14 14 16 18 19 20 20 19 20 19 17 17 16 17 18 18 17 15 15 14 15 13 14 14 18 22 20 19 20 20 17 17 24 21 16 18 20 22 22 21 20 21 25 27
14 14 17 19 20 20 19 21 19 18 18 18 17 15 15 15 16 15 14 13 12 12 12 12 13 20 18 20 19 20 20 17 14 20 18 20 19 19 21 23 21 20 20 24 23
15 17 19 21 21 21 20 19 18 19 19 18 14 14 13 14 13 14 14 13 12 11 11 13 19 16 18 19 17 18 17 25 25 22 15 18 17 19 19 22 23 21 21 19 22
18 18 18 17 17 15 15 15 14 14 5 15 12 12 10 9 11 12 12 11 11 10 9 11 16 15 16 17 19 11 28 19 21 23 20 18 20 16 12 21 22 22 19 18 19
18 17 16 15 13 11 11 11 11 10 15 13 12 10 10 9 10 12 12 12 11 11 12 16 17 13 13 19 15 21 22 19 19 17 21 20 23 20 15 21 22 23 17 21 19
17 17 16 16 14 11 9 10 10 11 14 15 12 11 11 12 12 13 12 10 6 9 10 14 15 15 16 14 13 17 17 12 13 14 18 17 20 16 16 13 17 16 15 34 19
18 17 18 18 16 13 13 12 12 14 17 15 14 13 12 12 13 13 11 8 12 9 9 7 15 10 15 13 4 13 11 11 13 13 16 17 14 16 18 18 21 20 21 26 29
20 20 19 19 18 17 15 14 17 14 16 16 15 15 16 15 15 13 12 17 11 9 10 8 10 25 26 21 15 8 14 13 18 19 20 17 13 14 22 14 15 15 18 26 29
23 22 22 21 19 19 19 20 18 17 18 18 16 16 18 18 14 14 17 15 14 11 10 13 20 14 18 18 19 15 17 15 13 15 19 18 20 10 14 9 7 10 11 24 32
23 25 24 23 22 22 21 25 21 18 19 20 21 19 20 21 18 17 18 18 16 13 14 13 13 12 14 7 12 13 11 15 20 25 21 19 12 23 22 9 15 23 18 28 30
19 21 23 21 22 21 24 23 24 22 21 21 21 22 22 22 22 22 24 24 16 17 17 19 15 14 15 19 19 19 22 25 25 19 20 25 29 25 21 16 23 25 20 41 39
23 23 21 21 22 24 24 27 26 27 26 25 25 24 23 24 24 25 27 23 22 22 21 22 21 19 17 13 19 19 17 20 26 25 26 29 27 15 26 38 9 24 31 32 30
26 27 23 24 24 26 26 30 30 28 29 29 30 26 27 28 28 29 29 33 28 30 26 26 24 23 19 16 18 16 22 23 24 25 22 22 25 28 31 30 15 30 22 30 31
30 28 28 28 25 27 28 31 30 31 32 31 33 32 33 33 34 34 34 36 30 35 32 33 29 28 28 27 26 27 27 25 25 21 26 24 26 26 32 44 43 39 36 30 28
34 33 32 32 29 29 31 32 32 34 31 34 35 38 34 36 37 39 41 38 37 40 35 37 34 34 33 31 32 31 30 29 27 24 27 28 29 26 26 33 36 42 35 27 30
37 37 35 34 33 33 36 32 33 34 34 36 35 37 38 40 37 38 40 40 38 37 39 38 38 37 37 37 37 36 31 30 30 26 28 29 25 27 30 30 30 28 36 33 34
Wind_Direction
236 240 234 228 239 250 252 255 257 263 280 286 291 293 298 301 289 277 266 264 264 262 260 261 254 248 245 241 233 222 223 226 239 241 246 267 247 250 263 284 299 318 301 291 299
235 237 241 249 254 256 259 261 268 279 276 283 288 298 306 300 294 291 275 264 265 262 257 259 259 255 245 237 232 226 221 217 219 238 219 261 241 247 261 277 291 320 300 284 295
241 244 251 255 255 256 264 273 279 276 278 280 283 287 290 294 300 300 301 280 268 267 260 257 259 257 248 240 234 227 217 216 233 231 213 240 242 251 255 276 288 313 291 277 288
243 251 253 254 259 267 272 274 275 279 284 286 285 285 284 285 293 305 308 300 280 267 265 257 255 257 250 246 239 236 213 210 213 244 231 239 240 248 252 255 280 309 302 273 287
253 258 260 265 269 271 273 275 276 280 285 289 293 295 294 288 288 294 300 298 289 272 262 258 251 253 251 246 243 239 209 213 224 236 237 234 244 239 251 257 273 296 301 283 287
267 269 268 271 271 274 278 280 283 286 288 289 288 290 291 294 294 292 289 290 283 277 261 255 250 249 249 248 248 235 219 215 225 232 239 241 245 246 250 264 276 290 293 280 293
263 267 271 272 277 279 281 284 288 291 290 289 287 287 286 286 288 288 286 284 284 279 272 256 252 245 246 249 242 243 234 225 229 234 239 241 242 252 253 266 274 283 287 280 292
264 268 274 280 286 289 290 293 294 293 290 287 286 283 283 283 280 281 283 280 278 278 273 262 251 249 242 248 238 236 227 231 239 240 240 244 249 261 260 265 273 273 271 275 283
269 271 278 283 285 287 288 290 290 288 286 283 280 280 279 277 277 274 276 278 275 272 267 260 247 242 240 239 238 239 236 252 234 250 241 243 247 244 258 266 261 260 255 264 280
266 273 276 280 284 287 289 291 291 289 285 283 281 278 276 273 270 268 267 269 268 265 260 257 251 241 238 236 218 250 260 227 232 251 256 247 243 220 235 261 258 252 248 262 276
259 267 275 283 287 288 291 292 288 283 283 282 282 281 278 271 270 268 265 265 268 268 262 257 252 242 241 236 215 220 206 216 249 221 246 244 240 229 255 248 247 251 257 261 268
259 267 280 292 296 296 293 289 287 286 280 280 280 278 275 272 273 273 272 272 274 273 264 258 262 241 250 257 247 243 244 240 231 253 253 246 247 239 238 246 250 252 261 265 267
268 287 297 298 295 295 294 287 280 278 279 277 276 277 279 278 275 269 263 261 263 266 264 247 235 264 257 259 256 253 247 241 240 257 249 247 246 238 235 248 254 256 263 267 276
280 289 291 290 293 291 287 286 283 276 277 274 282 281 280 274 272 269 261 258 258 261 262 258 248 268 261 258 253 257 267 244 243 246 254 288 253 262 271 268 265 268 265 267 274
277 281 286 290 294 289 288 284 273 271 247 281 282 286 287 285 273 267 262 255 252 255 249 266 261 264 263 258 255 220 251 268 259 260 259 242 257 239 243 245 265 277 264 256 264
271 271 277 285 292 296 292 282 271 261 255 266 275 283 297 295 287 271 261 255 250 243 233 225 266 254 252 260 261 250 264 262 262 265 260 260 242 251 257 269 269 284 258 258 258
266 270 275 284 287 291 291 282 262 245 274 268 269 271 277 293 293 289 279 264 244 262 280 285 277 278 251 262 281 266 261 269 273 273 280 265 257 260 246 240 265 266 251 258 253
267 272 276 281 282 283 285 281 262 268 258 263 267 268 267 276 277 277 276 263 252 241 224 245 246 239 268 246 223 260 263 251 256 253 260 236 244 276 260 252 242 250 244 250 268
271 270 270 278 278 274 269 266 256 257 257 257 263 268 270 266 264 255 228 220 265 253 210 205 242 272 269 267 251 255 261 271 256 250 251 246 263 282 293 271 284 272 283 287 275
269 265 264 267 272 271 269 262 263 257 253 252 251 258 261 266 255 253 257 257 261 253 238 242 218 260 256 281 291 265 237 254 279 273 262 255 265 273 267 258 251 240 263 283 275
267 261 259 261 267 268 268 266 264 255 254 253 253 256 251 256 255 253 250 263 263 253 245 248 242 234 268 304 254 265 285 266 252 230 245 263 261 244 252 251 252 258 256 258 256
265 261 256 259 265 268 268 272 268 260 254 250 249 252 248 249 255 259 261 261 261 263 262 268 264 258 253 235 256 254 253 245 260 281 251 238 235 243 276 278 281 268 278 258 267
258 260 260 262 265 269 271 267 266 263 258 252 249 251 253 251 254 261 265 267 264 264 263 269 271 275 276 284 289 270 264 261 261 268 262 251 268 291 261 245 188 239 249 266 305
257 260 259 264 267 271 270 268 267 261 258 258 256 250 251 252 255 260 260 265 267 270 267 267 267 273 266 230 231 253 276 277 273 273 274 263 259 251 240 270 279 253 284 236 243
256 258 262 265 267 270 269 265 261 261 257 255 256 255 253 254 256 260 259 262 263 268 267 264 265 268 271 265 262 269 274 275 276 279 271 274 271 268 256 246 255 257 257 249 237
255 260 264 268 271 273 269 263 260 261 256 257 258 260 258 258 258 258 262 266 267 272 266 267 264 266 266 268 267 265 272 272 271 269 272 273 275 278 277 267 263 260 260 250 230
258 260 262 268 271 271 267 263 262 261 258 258 261 260 261 259 264 263 263 266 266 264 268 267 266 268 268 268 268 269 272 267 263 264 270 274 279 275 274 280 278 262 249 246 229
Height
5861 5863 5864 5864 5863 5864 5865 5866 5866 5866 5866 5865 5864 5864 5865 5864 5863 5863 5864 5865 5864 5866 5867 5868 5869 5871 5874 5878 5880 5883 5887 5892 5900 5901 5902 5896 5894 5892 5892 5891 5890 5888 5886 5886 5884
5859 5862 5863 5862 5862 5863 5864 5865 5865 5864 5864 5864 5864 5863 5863 5863 5862 5862 5862 5862 5862 5862 5864 5865 5867 5868 5871 5874 5876 5880 5884 5890 5898 5899 5901 5892 5892 5890 5891 5889 5888 5888 5886 5884 5883
5859 5861 5861 5860 5861 5862 5863 5863 5863 5862 5862 5862 5863 5863 5863 5862 5861 5861 5860 5859 5860 5860 5862 5863 5864 5866 5867 5869 5873 5877 5880 5888 5892 5891 5893 5891 5889 5887 5889 5887 5886 5885 5884 5883 5882
5858 5858 5859 5859 5859 5860 5861 5861 5861 5860 5859 5860 5861 5861 5861 5860 5861 5860 5859 5858 5858 5858 5859 5861 5862 5863 5865 5867 5870 5872 5876 5879 5886 5884 5885 5886 5886 5885 5886 5887 5881 5882 5882 5881 5880
5856 5857 5857 5858 5858 5859 5859 5859 5859 5859 5858 5859 5859 5859 5859 5859 5859 5859 5858 5857 5856 5856 5856 5858 5860 5861 5862 5864 5867 5869 5871 5875 5878 5879 5881 5883 5882 5883 5882 5883 5884 5880 5880 5879 5879
5854 5855 5855 5856 5857 5856 5857 5858 5858 5857 5856 5856 5857 5857 5857 5857 5856 5857 5856 5855 5854 5854 5854 5855 5857 5858 5860 5862 5864 5865 5867 5870 5873 5876 5877 5879 5880 5879 5881 5878 5880 5877 5877 5877 5877
5852 5852 5852 5853 5853 5853 5854 5855 5854 5853 5853 5853 5853 5854 5854 5855 5854 5854 5854 5853 5853 5852 5852 5853 5855 5856 5857 5859 5861 5862 5863 5866 5869 5872 5873 5874 5875 5877 5880 5876 5876 5875 5874 5873 5874
5849 5849 5849 5850 5850 5850 5851 5851 5850 5850 5850 5849 5850 5850 5851 5850 5850 5850 5850 5850 5850 5850 5851 5851 5851 5852 5854 5856 5858 5859 5861 5863 5866 5867 5869 5870 5873 5874 5875 5873 5871 5872 5871 5870 5870
5845 5846 5846 5846 5847 5847 5847 5847 5846 5846 5845 5846 5846 5845 5846 5845 5846 5846 5847 5847 5847 5847 5848 5848 5848 5850 5852 5853 5856 5857 5859 5862 5866 5863 5865 5866 5870 5872 5872 5866 5868 5868 5867 5867 5867
5841 5842 5844 5843 5843 5843 5843 5843 5843 5843 5843 5842 5842 5842 5841 5841 5840 5841 5842 5843 5843 5844 5844 5845 5846 5847 5849 5851 5857 5861 5858 5860 5865 5864 5859 5862 5864 5869 5865 5863 5864 5864 5864 5864 5864
5839 5839 5840 5839 5839 5839 5839 5839 5841 5841 5839 5839 5839 5837 5837 5836 5836 5836 5838 5839 5839 5841 5841 5841 5844 5845 5847 5847 5849 5851 5853 5858 5861 5859 5854 5857 5859 5861 5859 5860 5860 5861 5860 5861 5861
5836 5836 5836 5835 5835 5835 5835 5836 5836 5836 5836 5835 5834 5834 5833 5832 5833 5833 5835 5836 5836 5837 5838 5840 5841 5841 5841 5843 5845 5847 5849 5852 5854 5850 5853 5855 5856 5859 5859 5857 5857 5858 5858 5857 5858
5832 5832 5832 5831 5832 5832 5831 5831 5832 5831 5831 5831 5831 5830 5830 5830 5829 5829 5830 5831 5832 5834 5835 5837 5840 5836 5839 5840 5842 5843 5845 5847 5850 5849 5849 5851 5854 5855 5856 5854 5853 5854 5854 5853 5852
5828 5828 5828 5829 5829 5828 5828 5828 5827 5828 5828 5829 5828 5827 5826 5825 5825 5825 5826 5828 5829 5830 5832 5833 5832 5834 5835 5836 5838 5840 5841 5840 5842 5844 5848 5848 5851 5853 5852 5851 5849 5849 5849 5849 5848
5823 5824 5824 5824 5824 5824 5825 5824 5824 5824 5828 5825 5824 5823 5823 5824 5823 5822 5823 5824 5825 5827 5830 5832 5828 5830 5832 5832 5834 5839 5834 5838 5838 5840 5842 5847 5846 5850 5851 5851 5849 5846 5844 5844 5845
5819 5820 5821 5821 5821 5822 5821 5822 5822 5824 5821 5822 5822 5820 5820 5820 5820 5820 5820 5821 5823 5824 5825 5826 5825 5826 5827 5827 5830 5830 5832 5833 5834 5836 5837 5839 5842 5846 5849 5848 5845 5843 5843 5839 5839
5816 5816 5816 5817 5818 5818 5818 5819 5820 5820 5820 5820 5819 5819 5819 5818 5817 5817 5817 5818 5821 5822 5824 5824 5823 5823 5824 5824 5826 5827 5828 5832 5836 5837 5836 5838 5838 5840 5843 5844 5841 5841 5842 5822 5828
5811 5812 5812 5813 5813 5814 5815 5816 5815 5814 5814 5815 5816 5816 5817 5816 5815 5815 5816 5818 5815 5817 5820 5825 5825 5822 5819 5823 5826 5826 5827 5831 5833 5835 5835 5832 5834 5835 5835 5834 5836 5836 5834 5831 5825
5807 5807 5808 5808 5809 5809 5810 5810 5810 5809 5809 5810 5811 5813 5812 5813 5813 5813 5814 5815 5814 5814 5817 5820 5823 5817 5816 5817 5820 5824 5825 5826 5825 5827 5828 5831 5831 5831 5829 5827 5827 5828 5827 5824 5820
5801 5802 5803 5803 5803 5804 5805 5804 5804 5803 5804 5805 5806 5808 5809 5808 5809 5810 5809 5810 5810 5811 5811 5813 5815 5816 5814 5812 5814 5815 5821 5821 5822 5822 5823 5827 5827 5829 5825 5822 5823 5823 5822 5819 5812
5794 5795 5796 5797 5797 5798 5798 5797 5798 5798 5799 5800 5800 5801 5803 5804 5805 5805 5806 5805 5806 5808 5808 5808 5809 5810 5811 5813 5814 5812 5813 5812 5813 5816 5817 5820 5822 5816 5814 5813 5814 5820 5818 5810 5785
5787 5788 5789 5790 5792 5791 5790 5792 5793 5793 5793 5794 5795 5795 5795 5796 5799 5800 5799 5797 5800 5801 5802 5802 5803 5804 5805 5806 5804 5804 5804 5806 5805 5805 5807 5808 5810 5816 5810 5812 5812 5813 5813 5793 5790
5781 5782 5783 5783 5784 5784 5784 5784 5784 5786 5787 5788 5788 5789 5790 5791 5792 5792 5792 5793 5793 5793 5794 5795 5796 5797 5799 5801 5799 5798 5799 5798 5798 5798 5799 5801 5799 5801 5801 5802 5801 5799 5795 5795 5772
5773 5774 5776 5776 5776 5776 5777 5776 5777 5777 5779 5780 5781 5783 5783 5784 5785 5785 5786 5783 5788 5786 5788 5787 5789 5790 5793 5796 5792 5792 5791 5791 5791 5791 5792 5793 5794 5795 5796 5790 5785 5787 5775 5787 5787
5764 5765 5766 5767 5768 5768 5768 5768 5768 5768 5769 5771 5773 5774 5775 5777 5777 5777 5776 5775 5779 5778 5781 5780 5781 5781 5782 5784 5785 5784 5784 5784 5783 5784 5783 5784 5783 5783 5783 5783 5782 5780 5779 5781 5785
5754 5756 5758 5757 5758 5759 5759 5759 5759 5758 5762 5761 5763 5764 5767 5767 5768 5768 5767 5769 5769 5768 5771 5771 5773 5772 5772 5773 5774 5776 5776 5776 5777 5776 5775 5775 5775 5775 5773 5769 5768 5768 5773 5776 5777
5744 5746 5747 5747 5748 5749 5746 5750 5751 5751 5752 5752 5754 5755 5755 5755 5758 5758 5757 5759 5760 5759 5759 5761 5762 5762 5762 5762 5763 5765 5767 5767 5767 5767 5767 5767 5768 5766 5764 5762 5761 5763 5763 5767 5770